TimeEDT,TemperatureF,Dew PointF,Humidity,Sea Level PressureIn,VisibilityMPH,Wind Direction,Wind SpeedMPH,Gust SpeedMPH,PrecipitationIn,Events,Conditions,WindDirDegrees,DateUTC
12:53 AM,75.0,73.9,96,29.57,10.0,South,8.1,-,N/A,,Overcast,170,2011-10-19 04:53:00
1:20 AM,75.2,73.4,94,29.57,10.0,South,8.1,-,N/A,,Overcast,170,2011-10-19 05:20:00
1:35 AM,75.2,75.2,100,29.57,10.0,South,6.9,-,N/A,,Overcast,180,2011-10-19 05:35:00
1:53 AM,75.9,75.0,97,29.56,10.0,South,8.1,-,N/A,,Overcast,170,2011-10-19 05:53:00
2:53 AM,77.0,75.0,94,29.55,10.0,South,15.0,-,N/A,,Overcast,180,2011-10-19 06:53:00
3:20 AM,77.0,75.2,94,29.54,10.0,South,13.8,19.6,N/A,,Overcast,190,2011-10-19 07:20:00
3:28 AM,77.0,75.2,94,29.53,10.0,SSW,12.7,-,N/A,,Overcast,200,2011-10-19 07:28:00
3:53 AM,75.9,75.9,100,29.53,4.0,South,12.7,-,0.03,Rain,Rain,190,2011-10-19 07:53:00
4:18 AM,75.2,75.2,100,29.53,10.0,SSW,11.5,-,0.01,,Mostly Cloudy,200,2011-10-19 08:18:00
4:35 AM,75.2,75.2,100,29.53,10.0,SSW,11.5,-,0.01,,Mostly Cloudy,210,2011-10-19 08:35:00
4:53 AM,75.9,75.9,100,29.52,10.0,SSW,8.1,-,0.01,,Mostly Cloudy,200,2011-10-19 08:53:00
5:53 AM,75.9,75.9,100,29.52,10.0,SSW,9.2,-,N/A,,Mostly Cloudy,200,2011-10-19 09:53:00
5:59 AM,75.2,75.2,100,29.52,10.0,SSW,9.2,-,N/A,,Mostly Cloudy,210,2011-10-19 09:59:00
6:25 AM,77.0,75.2,94,29.54,10.0,SSW,11.5,-,N/A,,Mostly Cloudy,210,2011-10-19 10:25:00
6:53 AM,77.0,75.9,96,29.54,10.0,SSW,10.4,-,N/A,,Mostly Cloudy,210,2011-10-19 10:53:00
7:25 AM,75.2,75.2,100,29.55,10.0,SSW,9.2,-,N/A,,Mostly Cloudy,210,2011-10-19 11:25:00
7:45 AM,75.2,75.2,100,29.54,10.0,SSW,9.2,-,N/A,,Mostly Cloudy,210,2011-10-19 11:45:00
7:53 AM,75.9,75.0,97,29.54,10.0,SW,8.1,-,N/A,,Mostly Cloudy,220,2011-10-19 11:53:00
8:05 AM,75.2,75.2,100,29.55,7.0,SSW,12.7,-,0.00,Rain,Light Rain,210,2011-10-19 12:05:00
8:22 AM,75.2,75.2,100,29.56,10.0,SW,11.5,-,0.00,,Mostly Cloudy,220,2011-10-19 12:22:00
8:53 AM,75.0,73.9,96,29.57,10.0,WSW,12.7,-,0.00,Rain,Light Rain,240,2011-10-19 12:53:00
9:19 AM,75.2,73.4,94,29.58,10.0,West,10.4,-,0.00,,Mostly Cloudy,260,2011-10-19 13:19:00
9:53 AM,77.0,73.0,88,29.58,10.0,West,10.4,-,0.00,,Mostly Cloudy,260,2011-10-19 13:53:00
10:29 AM,78.8,71.6,78,29.61,10.0,West,12.7,-,N/A,,Mostly Cloudy,260,2011-10-19 14:29:00
10:53 AM,80.1,71.1,74,29.61,10.0,West,10.4,24.2,N/A,,Mostly Cloudy,260,2011-10-19 14:53:00
11:53 AM,82.0,70.0,67,29.60,10.0,WSW,15.0,-,N/A,,Mostly Cloudy,250,2011-10-19 15:53:00
12:53 PM,80.1,70.0,71,29.61,10.0,West,17.3,27.6,N/A,,Mostly Cloudy,280,2011-10-19 16:53:00
1:53 PM,75.9,68.0,76,29.62,10.0,West,20.7,34.5,0.00,Rain,Light Rain,260,2011-10-19 17:53:00
2:53 PM,73.9,64.9,73,29.63,10.0,West,18.4,27.6,0.00,,Overcast,270,2011-10-19 18:53:00
3:05 PM,73.4,64.4,73,29.64,10.0,West,18.4,27.6,N/A,,Overcast,260,2011-10-19 19:05:00
3:53 PM,73.9,64.0,71,29.65,10.0,West,13.8,24.2,N/A,,Overcast,260,2011-10-19 19:53:00
4:53 PM,73.9,62.1,66,29.66,10.0,West,11.5,23.0,N/A,,Mostly Cloudy,270,2011-10-19 20:53:00
5:53 PM,73.0,59.0,61,29.70,10.0,West,20.7,27.6,N/A,,Mostly Cloudy,270,2011-10-19 21:53:00
6:53 PM,69.1,55.0,61,29.74,10.0,West,20.7,-,N/A,,Mostly Cloudy,270,2011-10-19 22:53:00
7:53 PM,66.9,54.0,63,29.78,10.0,West,15.0,-,N/A,,Scattered Clouds,270,2011-10-19 23:53:00
8:53 PM,64.9,54.0,68,29.82,10.0,West,12.7,-,N/A,,Scattered Clouds,280,2011-10-20 00:53:00
9:53 PM,64.0,54.0,70,29.84,10.0,West,9.2,-,N/A,,Partly Cloudy,270,2011-10-20 01:53:00
10:53 PM,63.0,54.0,72,29.85,10.0,West,9.2,-,N/A,,Clear,280,2011-10-20 02:53:00
11:53 PM,62.1,54.0,75,29.87,10.0,WSW,3.5,-,N/A,,Clear,240,2011-10-20 03:53:00